This is the latest recevied weather packets stored in our database for station/object K6FAK-13. If no packets are shown the sender has not sent any weather packets the latest 10 day(s).
| Time | Temp. | Humidity | Pressure | Rain* | Wind** | Luminosity | Snow |
|---|---|---|---|---|---|---|---|
| 1777722546 | 13.89° C | 82% | 1012.7 hPa | 0 mm | - | 0 W/m² | - |
| 1777721941 | 13.89° C | 80% | 1012.8 hPa | 0 mm | - | 0 W/m² | - |
| 1777721638 | 13.89° C | 79% | 1012.7 hPa | 0 mm | - | 0 W/m² | - |
| 1777721336 | 13.89° C | 81% | 1012.7 hPa | 0 mm | - | 0 W/m² | - |
| 1777721034 | 13.33° C | 84% | 1012.8 hPa | 0 mm | - | 0 W/m² | - |
| 1777720731 | 13.33° C | 84% | 1012.8 hPa | 0 mm | - | 0 W/m² | - |
| 1777720428 | 13.33° C | 85% | 1012.7 hPa | 0 mm | - | 0 W/m² | - |
| 1777720126 | 13.33° C | 86% | 1012.8 hPa | 0 mm | - | 0 W/m² | - |
| 1777719823 | 13.33° C | 86% | 1012.7 hPa | 0 mm | - | 0 W/m² | - |
| 1777719521 | 12.78° C | 87% | 1012.7 hPa | 0 mm | - | 0 W/m² | - |
| 1777719218 | 12.78° C | 88% | 1013 hPa | 0 mm | - | 0 W/m² | - |
| 1777718915 | 12.78° C | 88% | 1012.9 hPa | 0 mm | - | 0 W/m² | - |
| 1777718612 | 12.78° C | 88% | 1013.2 hPa | 0 mm | - | 0 W/m² | - |
| 1777718310 | 12.78° C | 88% | 1013.2 hPa | 0 mm | - | 0 W/m² | - |
| 1777718007 | 13.33° C | 87% | 1013.2 hPa | 0 mm | - | 0 W/m² | - |
| 1777717704 | 13.33° C | 86% | 1013.3 hPa | 0 mm | - | 0 W/m² | - |
| 1777717400 | 13.33° C | 86% | 1013.1 hPa | 0 mm | - | 0 W/m² | - |
| 1777717099 | 13.33° C | 85% | 1013.3 hPa | 0 mm | - | 0 W/m² | - |
| 1777716796 | 13.33° C | 85% | 1013.2 hPa | 0 mm | - | 0 W/m² | - |
| 1777716494 | 13.33° C | 85% | 1013 hPa | 0 mm | - | 0 W/m² | - |
| 1777716193 | 13.33° C | 85% | 1012.9 hPa | 0 mm | - | 0 W/m² | - |
| 1777715890 | 13.33° C | 85% | 1013.2 hPa | 0 mm | - | 0 W/m² | - |
| 1777715588 | 13.33° C | 85% | 1013.4 hPa | 0 mm | - | 0 W/m² | - |
| 1777715286 | 13.89° C | 84% | 1013.3 hPa | 0 mm | - | 0 W/m² | - |
| 1777714681 | 13.33° C | 85% | 1013.3 hPa | 0 mm | - | 0 W/m² | - |
* Rain latest hour (hover to see other rain measurements)
** Current wind speed in m/s (hover to see current wind gust speed)